• In Czech Republic
  • List of Countries
  • For 7 days
  • Water Temperature
  • Satellite Maps
  • Weather Map
  • Weather Widgets
  • user-avatar
    Login

    Hourly Weather San Felipe Ixtacuixtla

    Today, 18 January, Thursday

    Time Temperature Precipitation Wind Pressure Humidity
    00:00 +7°C° 0 mm 2 mps 579 mmHg 77%
    01:00 +7°C° 0 mm 2 mps 579 mmHg 79%
    02:00 +6°C° 0 mm 2 mps 579 mmHg 80%
    03:00 +7°C° 0 mm 1 mps 578 mmHg 81%
    04:00 +7°C° 0 mm 1 mps 578 mmHg 82%
    05:00 +6°C° 0 mm 1 mps 578 mmHg 83%
    06:00 +7°C° 0 mm 1 mps 578 mmHg 77%
    07:00 +8°C° 0 mm 1 mps 579 mmHg 72%
    08:00 +9°C° 0 mm 1 mps 580 mmHg 66%
    09:00 +11°C° 0 mm 1 mps 580 mmHg 57%
    10:00 +14°C° 0 mm 2 mps 581 mmHg 48%
    11:00 +16°C° 0 mm 2 mps 581 mmHg 39%
    12:00 +16°C° 0 mm 2 mps 581 mmHg 37%
    13:00 +17°C° 0 mm 2 mps 581 mmHg 34%
    14:00 +18°C° 0 mm 2 mps 581 mmHg 32%
    15:00 +17°C° 0 mm 2 mps 580 mmHg 37%
    16:00 +16°C° 0 mm 2 mps 580 mmHg 41%
    17:00 +15°C° 0 mm 2 mps 579 mmHg 45%
    18:00 +13°C° 0 mm 2 mps 579 mmHg 52%
    19:00 +12°C° 0 mm 1 mps 579 mmHg 58%
    20:00 +11°C° 0 mm 1 mps 579 mmHg 64%
    21:00 +10°C° 0 mm 1 mps 578 mmHg 66%
    22:00 +10°C° 0 mm 1 mps 578 mmHg 67%
    23:00 +9°C° 0 mm 1 mps 578 mmHg 69%

    Tomorrow, 19 January, Friday

    Time Temperature Precipitation Wind Pressure Humidity
    00:00 +9°C° 0 mm 1 mps 578 mmHg 69%
    01:00 +9°C° 0 mm 1 mps 577 mmHg 69%
    02:00 +9°C° 0 mm 1 mps 577 mmHg 69%
    03:00 +8°C° 0 mm 1 mps 577 mmHg 68%
    04:00 +8°C° 0 mm 1 mps 577 mmHg 67%
    05:00 +8°C° 0 mm 1 mps 576 mmHg 65%
    06:00 +9°C° 0 mm 1 mps 577 mmHg 60%
    07:00 +11°C° 0 mm 1 mps 578 mmHg 54%
    08:00 +12°C° 0 mm 1 mps 579 mmHg 49%
    09:00 +14°C° 0 mm 1 mps 580 mmHg 44%
    10:00 +16°C° 0 mm 2 mps 580 mmHg 39%
    11:00 +17°C° 0 mm 2 mps 581 mmHg 34%
    12:00 +18°C° 0 mm 3 mps 580 mmHg 34%
    13:00 +18°C° 0 mm 3 mps 579 mmHg 33%
    14:00 +19°C° 0 mm 3 mps 579 mmHg 33%
    15:00 +18°C° 0 mm 3 mps 578 mmHg 37%
    16:00 +17°C° 0 mm 3 mps 578 mmHg 42%
    17:00 +16°C° 0 mm 2 mps 577 mmHg 47%
    18:00 +14°C° 0 mm 2 mps 577 mmHg 51%
    19:00 +13°C° 0 mm 1 mps 577 mmHg 55%
    20:00 +12°C° 0 mm 1 mps 577 mmHg 59%
    21:00 +12°C° 0 mm 1 mps 577 mmHg 60%
    22:00 +12°C° 0 mm 1 mps 577 mmHg 62%
    23:00 +11°C° 0 mm 1 mps 577 mmHg 64%

    Day after tomorrow, 20 January, Saturday

    Time Temperature Precipitation Wind Pressure Humidity
    00:00 +11°C° 0 mm 1 mps 577 mmHg 65%
    01:00 +10°C° 0 mm 1 mps 576 mmHg 67%
    02:00 +10°C° 0 mm 1 mps 576 mmHg 69%
    03:00 +9°C° 0 mm 1 mps 576 mmHg 70%
    04:00 +9°C° 0 mm 1 mps 575 mmHg 71%
    05:00 +9°C° 0 mm 1 mps 575 mmHg 71%
    06:00 +10°C° 0 mm 1 mps 576 mmHg 66%
    07:00 +11°C° 0 mm 0 mps 577 mmHg 61%
    08:00 +12°C° 0 mm 0 mps 578 mmHg 55%
    09:00 +15°C° 0 mm 1 mps 579 mmHg 48%
    10:00 +16°C° 0 mm 1 mps 579 mmHg 41%
    11:00 +18°C° 0 mm 2 mps 580 mmHg 34%
    12:00 +18°C° 0 mm 2 mps 580 mmHg 32%
    13:00 +19°C° 0 mm 2 mps 579 mmHg 30%
    14:00 +20°C° 0 mm 3 mps 579 mmHg 28%
    15:00 +19°C° 0 mm 3 mps 578 mmHg 32%
    16:00 +18°C° 0 mm 2 mps 578 mmHg 36%
    17:00 +17°C° 0 mm 2 mps 578 mmHg 40%
    18:00 +15°C° 0 mm 2 mps 577 mmHg 45%
    19:00 +14°C° 0 mm 1 mps 577 mmHg 50%
    20:00 +13°C° 0 mm 1 mps 577 mmHg 54%
    21:00 +12°C° 0 mm 1 mps 577 mmHg 56%
    22:00 +12°C° 0 mm 1 mps 577 mmHg 57%
    23:00 +11°C° 0 mm 1 mps 577 mmHg 58%

    21 January, Sunday

    Time Temperature Precipitation Wind Pressure Humidity
    00:00 +11°C° 0 mm 1 mps 576 mmHg 60%
    01:00 +11°C° 0 mm 1 mps 576 mmHg 62%
    02:00 +10°C° 0 mm 1 mps 575 mmHg 63%
    03:00 +10°C° 0 mm 1 mps 575 mmHg 65%
    04:00 +10°C° 0 mm 1 mps 575 mmHg 66%
    05:00 +9°C° 0 mm 1 mps 575 mmHg 67%
    06:00 +11°C° 0 mm 1 mps 576 mmHg 62%
    07:00 +12°C° 0 mm 1 mps 577 mmHg 56%
    08:00 +14°C° 0 mm 1 mps 578 mmHg 50%
    09:00 +16°C° 0 mm 1 mps 579 mmHg 42%
    10:00 +18°C° 0 mm 2 mps 579 mmHg 34%
    11:00 +20°C° 0 mm 2 mps 580 mmHg 25%
    12:00 +20°C° 0 mm 2 mps 579 mmHg 24%
    13:00 +21°C° 0 mm 3 mps 579 mmHg 23%
    14:00 +22°C° 0 mm 3 mps 578 mmHg 22%
    15:00 +20°C° 0 mm 3 mps 578 mmHg 26%
    16:00 +19°C° 0 mm 2 mps 577 mmHg 30%
    17:00 +18°C° 0 mm 2 mps 577 mmHg 35%
    18:00 +17°C° 0 mm 2 mps 577 mmHg 39%
    19:00 +15°C° 0 mm 1 mps 577 mmHg 43%
    20:00 +14°C° 0 mm 1 mps 576 mmHg 47%
    21:00 +13°C° 0 mm 1 mps 576 mmHg 48%
    22:00 +13°C° 0 mm 1 mps 576 mmHg 49%
    23:00 +13°C° 0 mm 1 mps 576 mmHg 50%

    22 January, Monday

    Time Temperature Precipitation Wind Pressure Humidity
    00:00 +12°C° 0 mm 1 mps 576 mmHg 51%
    01:00 +12°C° 0 mm 1 mps 576 mmHg 53%
    02:00 +11°C° 0 mm 1 mps 575 mmHg 54%
    03:00 +11°C° 0 mm 1 mps 575 mmHg 55%
    04:00 +11°C° 0 mm 1 mps 575 mmHg 56%
    05:00 +11°C° 0 mm 1 mps 575 mmHg 57%
    06:00 +12°C° 0 mm 1 mps 577 mmHg 53%
    07:00 +13°C° 0 mm 1 mps 578 mmHg 49%
    08:00 +15°C° 0 mm 1 mps 579 mmHg 45%
    09:00 +18°C° 0 mm 1 mps 579 mmHg 40%
    10:00 +19°C° 0 mm 1 mps 580 mmHg 34%
    11:00 +20°C° 0 mm 2 mps 581 mmHg 29%
    12:00 +21°C° 0 mm 2 mps 580 mmHg 28%
    13:00 +21°C° 0 mm 3 mps 580 mmHg 28%
    14:00 +22°C° 0 mm 3 mps 579 mmHg 27%
    15:00 +20°C° 0 mm 3 mps 579 mmHg 32%
    16:00 +19°C° 0 mm 3 mps 578 mmHg 38%
    17:00 +18°C° 0 mm 3 mps 578 mmHg 43%
    18:00 +16°C° 0 mm 3 mps 578 mmHg 50%
    19:00 +14°C° 0 mm 3 mps 578 mmHg 57%
    20:00 +13°C° 0 mm 3 mps 578 mmHg 65%
    21:00 +13°C° 0 mm 2 mps 578 mmHg 69%
    22:00 +13°C° 0 mm 2 mps 578 mmHg 73%
    23:00 +13°C° 0 mm 2 mps 578 mmHg 77%

    23 January, Tuesday

    Time Temperature Precipitation Wind Pressure Humidity
    00:00 +12°C° 0 mm 2 mps 577 mmHg 78%
    01:00 +12°C° 0 mm 2 mps 577 mmHg 79%
    02:00 +12°C° 0 mm 2 mps 577 mmHg 80%
    03:00 +10°C° 0 mm 2 mps 576 mmHg 81%
    04:00 +11°C° 0 mm 1 mps 576 mmHg 83%
    05:00 +10°C° 0 mm 1 mps 576 mmHg 85%
    06:00 +12°C° 0 mm 1 mps 577 mmHg 78%
    07:00 +13°C° 0 mm 1 mps 578 mmHg 71%
    08:00 +14°C° 0 mm 1 mps 579 mmHg 64%
    09:00 +16°C° 0 mm 2 mps 579 mmHg 57%
    10:00 +18°C° 0 mm 2 mps 580 mmHg 50%
    11:00 +19°C° 0 mm 3 mps 580 mmHg 43%
    12:00 +20°C° 0 mm 3 mps 580 mmHg 41%
    13:00 +21°C° 0 mm 4 mps 579 mmHg 39%
    14:00 +21°C° 0 mm 4 mps 579 mmHg 37%
    15:00 +20°C° 0 mm 4 mps 578 mmHg 41%
    16:00 +19°C° 0 mm 4 mps 578 mmHg 45%
    17:00 +18°C° 0 mm 4 mps 578 mmHg 49%
    18:00 +17°C° 0.1 mm 3 mps 578 mmHg 53%
    19:00 +16°C° 0.1 mm 2 mps 578 mmHg 58%
    20:00 +14°C° 0.1 mm 1 mps 578 mmHg 62%
    21:00 +14°C° 0 mm 1 mps 577 mmHg 64%
    22:00 +13°C° 0 mm 1 mps 577 mmHg 66%
    23:00 +13°C° 0 mm 1 mps 577 mmHg 67%
    Show more